This demonstration page uses our WeatherBlox Daily Observations layout. Learn more.

41.55636, -103.73856

Hourly Observations for January 3, 2020

Temp ( °F °C ) Dew Point ( °F °C ) Humidity (%) Winds ( mph kmh ) Pressure ( in mb ) Visibility ( mi km ) Precip ( " mm )
12:58 am 00:58 Clear 32 0 20 -6.9 60 60 W 15 24 29.85 1011 10 16.0934 0 0
1:58 am 01:58 Clear 30 -1.1 19 -7.1 64 64 W 12 19 29.9 1013 10 16.0934 0 0
2:58 am 02:58 Mostly Cloudy 32 0.1 19 -7 59 59 W 20 31 29.91 1013 10 16.0934 0 0
3:58 am 03:58 Mostly Cloudy 32 -0.2 21 -6.1 65 65 WNW 12 19 29.94 1014 10 16.0934 0 0
4:58 am 04:58 Mostly Cloudy 30 -1.1 22 -5.6 72 72 NNW 15 24 29.97 1015 10 16.0934 0 0
5:58 am 05:58 Mostly Cloudy 29 -1.9 21 -6.1 73 73 NW 9 15 30 1016 10 16.0934 0 0
6:58 am 06:58 Mostly Clear 25 -3.8 20 -6.4 82 82 W 10 17 30.01 1016 10 16.0934 0 0
7:58 am 07:58 Mostly Cloudy 28 -2.4 21 -5.9 77 77 NW 6 9 30.01 1016 10 16.0934 0 0
8:58 am 08:58 Clear 26 -3.6 19 -7.2 76 76 NW 9 15 30.05 1018 10 16.0934 0 0
9:58 am 09:58 Partly Cloudy 26 -3.6 19 -7 78 78 WNW 12 19 30.07 1018 10 16.0934 0 0
10:58 am 10:58 Mostly Cloudy 25 -4 19 -7.2 79 79 WNW 9 15 30.08 1019 10 16.0934 0 0
11:58 am 11:58 Mostly Cloudy 27 -2.7 19 -7 73 73 WNW 13 20 30.09 1019 10 16.0934 0 0
12:58 pm 12:58 Mostly Clear 25 -3.9 18 -8 73 73 NW 10 17 30.12 1020 10 16.0934 0 0
1:58 pm 13:58 Clear 22 -5.3 16 -8.9 76 76 Calm 30.14 1021 10 16.0934 0 0
2:58 pm 14:58 Sunny 20 -6.9 15 -9.5 82 82 W 7 11 30.16 1021 10 16.0934 0 0
3:58 pm 15:58 Mostly Cloudy 27 -3 17 -8.2 68 68 W 6 9 30.15 1021 10 16.0934 0 0
4:58 pm 16:58 Cloudy 29 -1.6 19 -7.5 64 64 Calm 30.15 1021 10 16.0934 0 0
5:58 pm 17:58 Cloudy 33 0.4 21 -6.3 61 61 NW 13 20 30.1 1019 10 16.0934 0 0
6:58 pm 18:58 Mostly Cloudy 37 2.7 22 -5.4 56 56 NW 22 35 30.06 1018 10 16.0934 0 0
7:58 pm 19:58 Mostly Cloudy 38 3.5 23 -5.2 53 53 WNW 22 35 30.04 1017 10 16.0934 0 0
8:58 pm 20:58 Cloudy 39 3.9 24 -4.4 55 55 NW 21 33 30.06 1018 10 16.0934 0 0
9:58 pm 21:58 Mostly Cloudy 39 3.9 25 -4 57 57 NW 13 20 30.07 1018 10 16.0934 0 0
10:58 pm 22:58 Cloudy 38 3.4 26 -3.6 61 61 NW 9 15 30.09 1019 10 16.0934 0 0
11:58 pm 23:58 Cloudy 37 2.6 26 -3.1 66 66 W 8 13 30.12 1020 10 16.0934 0 0

Powered by AerisWeather